TIME,DELAY(SENSOR),PRES,T(CTD),SAL,OXYGEN,RAWTEMP,T(OPTODE),TCPHASE,FLUOR,BETA(BETA700),BETA(BETA412),BETA(BETA440),CDOM,C(CSC),ED(ED412.40),ED(ED444.00),ED(ED489.70),ED(ED554.30),LU(LU411.80),LU(LU443.40),LU(LU489.60),LU(LU554.10),COMP,TILTX,TILTX(TILTY),CHECK
1373838504,5808,497.4299926757812500,6.5813999176025390,34.1164016723632800,77.3700332641601600,599.7816772460938000,6.5913200378417970,49.2176399230957000,51,103,87,79,78,15401,2147743762,2147423817,2148005942,2147874102,2147630116,2147068333,2148244260,2147200850,463,4,13,37414
1373838638,5812,486.2699890136719000,6.6739001274108890,34.1124992370605500,82.7965316772461000,597.6702880859375000,6.6594982147216800,48.5490913391113300,52,104,89,79,78,15400,2147745636,2147422912,2148004361,2147872256,2147629028,2147068708,2148245568,2147200786,898,4,13,8635
1373838770,5809,475.8800048828125000,6.8267002105712890,34.1006011962890600,87.7474594116211000,592.6613159179688000,6.8210768699646000,47.9098281860351560,51,103,86,79,78,15400,2147744201,2147427373,2148006592,2147872064,2147630692,2147068918,2148242624,2147196470,28,4,13,53498
1373838935,5811,463.1099853515625000,6.9623999595642090,34.0938987731933600,95.1614685058593800,588.8499145507812000,6.9438691139221190,47.0361213684082000,51,105,88,80,76,15400,2147742089,2147426157,2148010020,2147875245,2147629659,2147074806,2148244288,2147202797,2796,4,13,22021
1373839052,5808,452.4899902343750000,7.2293000221252440,34.0829010009765600,103.2202987670898400,580.5770874023438000,7.2099289894104000,46.0535392761230500,51,104,85,79,76,15399,2147742290,2147423387,2148005302,2147872777,2147628461,2147075474,2148245440,2147201938,2076,3,13,27632
1373839173,5808,441.6000061035156000,7.4552998542785645,34.0815010070800800,113.5675964355468800,573.0239868164062000,7.4523029327392580,44.8889808654785160,51,105,84,80,77,15400,2147741485,2147425316,2148005622,2147872612,2147624301,2147073636,2148241600,2147200000,1804,3,13,4720
1373839307,5809,430.2300109863281000,7.7417998313903810,34.0876998901367200,120.9461975097656200,564.3939208984375000,7.7286210060119630,44.0336494445800800,50,104,89,80,74,15399,2147740973,2147423680,2148004745,2147874176,2147626340,2147075894,2148238610,2147201078,1117,3,13,54332
1373839439,5809,419.4200134277344000,8.1605997085571290,34.0835990905761700,134.0126037597656200,551.4481201171875000,8.1419219970703120,42.6190414428710940,50,105,85,81,74,15399,2147740406,2147426249,2148005778,2147873883,2147622592,2147078034,2148235574,2147201929,148,4,13,6614
1373839573,5809,408.0599975585937500,8.3971004486083980,34.0890007019043000,141.0848999023437500,543.0029296875000000,8.4107875823974610,41.8612098693847660,50,106,88,81,74,15397,2147738587,2147424978,2148005558,2147870848,2147622582,2147080429,2148232621,2147200091,671,3,13,21780
1373839705,5803,397.0599975585937500,8.6885004043579100,34.0870018005371100,154.7518005371093800,534.7750854492188000,8.6721763610839840,40.5947189331054700,50,104,88,80,73,15399,2147734345,2147425664,2148005275,2147876406,2147619218,2147084918,2148230025,2147201856,2672,4,13,60297
1373839826,5804,386.4800109863281000,8.9485998153686520,34.0886001586914060,164.3836975097656200,526.6735229492188000,8.9290409088134770,39.7132606506347660,50,107,88,79,73,15400,2147735981,2147424475,2148008000,2147869129,2147618258,2147091821,2148232246,2147201161,2762,4,13,45054
1373839960,5811,375.1099853515625000,9.0739002227783200,34.0933990478515600,172.5991058349609400,522.5474853515625000,9.0596618652343750,39.0379905700683600,50,104,84,80,72,15399,2147740013,2147421860,2148007542,2147873298,2147617609,2147090669,2148228434,2147201088,2559,3,13,34658
1373840092,5808,364.8500061035156000,9.4042997360229500,34.0993995666503900,184.6432952880859400,511.8096923828125000,9.3990030288696290,38.0163383483886700,49,106,88,79,72,15401,2147734921,2147425956,2148006747,2147872850,2147618002,2147088374,2148228845,2147202066,2369,3,13,18074
1373840266,5806,351.8099975585937500,9.7750997543334960,34.1125984191894500,194.7326049804687500,499.8163146972656000,9.7770357131958000,37.1515007019043000,49,104,88,81,71,15400,2147735533,2147427410,2148009133,2147873490,2147611858,2147094464,2148226313,2147203501,841,4,13,54232
1373840386,5810,341.3200073242187500,10.0010995864868160,34.1226997375488300,202.1985931396484400,492.2145080566406000,10.0161199569702150,36.5575599670410160,48,106,89,80,70,15398,2147732653,2147426258,2148011456,2147873545,2147610368,2147096786,2148227821,2147203172,3375,3,13,19922
1373840508,5807,330.7999877929687500,10.5503997802734380,34.1502990722656250,212.4087982177734400,475.3096923828125000,10.5464200973510740,35.6690902709960940,49,106,89,79,68,15400,2147734153,2147428077,2148013421,2147872530,2147608786,2147100196,2148224073,2147204187,2745,3,14,22016
1373840640,5808,319.1900024414062500,10.9289999008178710,34.1729011535644500,220.8054962158203000,463.3717956542969000,10.9198198318481450,35.0000915527343750,48,103,84,80,68,15402,2147729755,2147428452,2148017609,2147873773,2147604370,2147101357,2148223515,2147205540,2664,3,14,21741
1373840761,5808,308.2600097656250000,11.3729000091552730,34.1917991638183600,222.4259033203125000,448.8877868652344000,11.3717002868652340,34.6770210266113300,49,102,85,79,67,15396,2147731209,2147433161,2148022089,2147874706,2147607232,2147112237,2148224886,2147207204,1393,3,14,27636
1373840884,5809,296.9299926757812500,11.6521997451782230,34.2056007385253900,223.8126068115234400,439.7832946777344000,11.6551399230957030,34.4560394287109400,49,103,86,78,68,15396,2147726299,2147434267,2148032301,2147872594,2147602331,2147115556,2148230244,2147206692,862,3,14,6802
1373841005,5809,286.0499877929687500,11.9854001998901370,34.2013015747070300,220.3329925537109400,429.5763854980469000,11.9723596572875980,34.4836883544921900,49,103,85,79,68,15397,2147730724,2147438546,2148046427,2147875986,2147604516,2147121014,2148228416,2147206345,3244,3,15,27968
1373841128,5810,275.4500122070312500,12.4146995544433600,34.2173004150390600,208.4282989501953000,415.7775878906250000,12.4003801345825200,34.9394302368164060,49,107,87,80,67,15395,2147726729,2147443538,2148063862,2147872237,2147599305,2147121737,2148241545,2147209398,3348,3,13,15372
1373841260,5810,265.1700134277344000,12.8958997726440430,34.2370986938476560,207.5888977050781200,400.0445861816406000,12.8872699737548830,34.7413902282714840,48,105,85,79,68,15387,2147723840,2147450203,2148085979,2147874486,2147596123,2147133248,2148246162,2147207414,2785,3,13,49901
1373841425,5809,253.9600067138672000,13.4711999893188480,34.2829017639160160,209.1246032714843800,382.0450134277344000,13.4429903030395500,34.3735618591308600,48,103,87,80,68,15392,2147723712,2147467355,2148122916,2147873014,2147596397,2147143433,2148262701,2147209261,2272,3,15,35110
1373841584,5804,242.0299987792968800,14.0010004043579100,34.3214988708496100,211.1190948486328000,361.2427978515625000,14.0836601257324220,33.9423408508300800,49,105,84,79,67,15391,2147725897,2147485796,2148180964,2147875401,2147594304,2147156598,2148291456,2147214345,3501,3,14,47204
1373841705,5808,231.7299957275390600,15.1155996322631840,34.4328994750976560,214.6539001464843800,328.1440124511719000,15.1001195907592770,33.2503204345703100,48,104,84,81,66,15389,2147728411,2147515017,2148247826,2147872841,2147594560,2147180077,2148314971,2147216146,2215,2,13,21185
1373841839,5809,220.7100067138672000,16.0251007080078120,34.5498008728027340,217.1976928710937500,297.7719116210937500,16.0303707122802730,32.6686210632324200,50,110,89,80,65,15382,2147735387,2147559405,2148338742,2147875766,2147590171,2147206875,2148358637,2147221696,1091,3,14,44108
1373841982,5809,209.9400024414062500,17.3155002593994140,34.7078018188476560,218.3688964843750000,257.3557128906250000,17.2658596038818360,32.0314292907714840,51,111,86,81,63,15372,2147748452,2147618185,2148472649,2147874980,2147588644,2147257837,2148412708,2147226953,28,3,13,20968
1373842166,5808,195.7700042724609400,18.1587009429931640,34.8224983215332000,218.1540985107422000,228.1195068359375000,18.1587600708007800,31.6360797882080080,59,115,89,82,64,15366,2147780672,2147759378,2148751460,2147872603,2147600182,2147348882,2148550637,2147234578,3498,3,13,58641
1373842228,5811,190.6000061035156200,18.4286994934082030,34.8562011718750000,217.4219055175781200,219.6799926757812500,18.4164905548095700,31.5583190917968750,61,116,87,81,64,15354,2147807076,2147834185,2148891373,2147872502,2147608301,2147396169,2148612699,2147242057,2373,2,14,1872
1373842283,5806,186.0899963378906200,18.6784992218017580,34.8772010803222660,215.1315002441406200,210.8845062255859400,18.6851100921630860,31.5597705841064450,61,122,89,81,64,15357,2147835254,2147910582,2149032923,2147874258,2147618185,2147438921,2148679917,2147245540,1797,2,14,27679
1373842338,5808,181.9799957275390600,18.8889007568359380,34.9021987915039060,210.2881011962890600,204.7140045166015600,18.8735809326171880,31.7377300262451170,65,117,87,81,65,15350,2147865371,2147996214,2149183524,2147878235,2147630253,2147492278,2148751277,2147247204,839,2,14,31767
1373842416,5808,176.8500061035156200,19.2231998443603500,34.9436988830566400,207.9349060058593800,193.7413024902343800,19.2087993621826170,31.7175407409667970,76,123,89,82,64,15342,2147924544,2148140662,2149456146,2147879661,2147652041,2147568274,2148863232,2147259638,3081,2,15,6038
1373842482,5807,172.6799926757812500,19.4783000946044920,34.9746017456054700,207.5429992675781200,184.5328979492187500,19.4901905059814450,31.6131095886230470,84,121,85,81,64,15338,2147841819,2147832548,2148768064,2147874322,2147622089,2147399058,2148546276,2147239049,2668,2,15,4739
1373842537,5807,169.1499938964843800,19.8803997039794920,35.0167999267578100,207.0874023437500000,171.6107025146484400,19.8852500915527340,31.4628791809082030,91,127,90,81,63,15333,2147915922,2148024109,2149132534,2147876891,2147643483,2147489737,2148693184,2147254336,1993,2,15,10069
1373842603,5808,164.8600006103515600,20.1604003906250000,35.0536003112793000,207.4884948730468800,162.5243988037109400,20.1631793975830080,31.3178596496582030,100,121,88,81,62,15323,2148156736,2148652726,2150336036,2147888301,2147732900,2147797558,2149180443,2147288137,1137,2,15,63709
1373842658,5808,161.1499938964843800,20.2812995910644530,35.0713996887207000,207.8766021728515600,158.8155975341797000,20.2766609191894530,31.2463493347167970,103,122,88,83,62,15316,2148280329,2148912539,2150758464,2147889472,2147775268,2147913435,2149352740,2147299099,624,2,15,31429
1373842742,5810,155.8899993896484400,20.5622997283935550,35.1012992858886700,207.9848937988281200,149.8459930419922000,20.5512294769287100,31.1198501586914060,111,121,88,81,64,15306,2148474441,2149278509,2151327195,2147890880,2147843483,2148078418,2149557357,2147317851,984,2,15,43339
1373842808,5810,152.9199981689453000,20.7115001678466800,35.1167984008789060,208.5691986083984400,145.6602020263672000,20.6794109344482420,31.0317802429199220,112,124,86,83,63,15297,2148635072,2149573595,2151771666,2147898066,2147896758,2148191222,2149708882,2147330075,676,2,15,24382
1373842929,5808,149.1000061035156200,21.0181007385253900,35.1467018127441400,209.3312988281250000,137.1614990234375000,20.9397907257080080,30.8769397735595700,124,127,92,83,63,15283,2148950774,2150096557,2152495241,2147901997,2148001142,2148405476,2149967030,2147355565,2392,2,15,30716
1373843096,5806,144.9199981689453000,21.4169998168945300,35.1725997924804700,210.4131927490234400,124.2080993652343800,21.3369903564453120,30.6469306945800780,132,129,88,84,63,15251,2149562496,2151066834,2153799588,2147915401,2148199680,2148761828,2150405641,2147395867,2254,2,15,18410
1373843216,5809,141.1300048828125000,21.5872993469238280,35.1911010742187500,213.5202026367187500,116.4253005981445300,21.5758495330810550,30.3787708282470700,153,129,90,83,61,15249,2150244425,2152097993,2155100489,2147923520,2148404946,2149120859,2150839049,2147432457,2139,2,15,46483
1373843355,5807,134.9100036621093800,21.7194995880126950,35.2033996582031250,215.8513031005859400,111.2098999023437500,21.7360191345214840,30.1886692047119140,152,128,90,84,59,15241,2151871862,2154440566,2157919926,2147954194,2148921682,2149956096,2151790409,2147525732,2101,2,16,876
1373843421,5810,131.1499938964843800,22.2593994140625000,35.2629013061523440,221.0139007568359400,96.0853729248046900,22.2009696960449220,29.7284908294677730,155,122,92,82,61,15241,2152979904,2155998244,2159645686,2147975149,2149315876,2150552758,2152431360,2147585088,2790,2,15,9004
1373843497,5811,127.3199996948242200,22.5256004333496100,35.3041000366210940,228.6647033691406200,85.9623489379882800,22.5125999450683600,29.2221603393554700,123,118,89,83,60,15265,2154232448,2157703030,2161496000,2148003739,2149859163,2151348050,2153225417,2147658322,74,2,15,24722
1373843574,5810,123.9100036621093800,22.7108001708984380,35.3325996398925800,234.8786010742187500,79.7178573608398400,22.7050209045410160,28.8486900329589840,109,120,88,82,59,15279,2155453924,2159379812,2163336630,2148033216,2150495872,2152277147,2154134098,2147741622,97,2,15,9834
1373843686,5806,119.8000030517578100,22.9062995910644530,35.3536987304687500,240.2254943847656200,73.0934600830078100,22.9093208312988280,28.5200691223144530,93,125,89,82,58,15261,2157031506,2161529938,2165603638,2148073243,2151465636,2153647387,2155410349,2147849938,2886,1,15,7044
1373843806,5808,116.1100006103515600,23.0573997497558600,35.3516998291015600,242.7451934814453000,68.7938919067382800,23.0420093536376950,28.3529796600341800,89,124,90,84,57,15264,2158679469,2163757942,2167918345,2148125366,2152572982,2155214189,2156819337,2147968914,3019,2,16,21317
1373843966,5804,110.7300033569336000,23.0960998535156250,35.3093986511230500,236.0292053222656200,67.0877609252929700,23.0946807861328120,28.6361293792724600,88,124,90,83,59,15262,2162415460,2168498742,2172718107,2148240841,2154394450,2157890441,2159304393,2148181065,2474,1,16,52272
1373844054,5807,106.4800033569336000,23.1723003387451170,35.3059005737304700,234.1598052978515600,63.6711616516113300,23.2001991271972660,28.6797294616699220,88,126,90,83,58,15256,2166336585,2173043190,2176977417,2148360009,2156114038,2160262665,2161428571,2148378998,1383,1,16,60811
1373844142,5806,102.4100036621093800,23.4249000549316400,35.3236999511718750,236.0912933349609400,57.2071609497070300,23.3999691009521500,28.5092201232910160,83,127,90,84,56,15250,2170938331,2178139721,2181515465,2148512448,2158404909,2163230902,2163890313,2148607890,1394,2,16,50867
1373844229,5808,98.5999984741211000,23.6032009124755860,35.3342018127441400,238.8468017578125000,51.2555503845214840,23.5840702056884770,28.3089904785156250,78,129,92,84,57,15254,2175857718,2183426294,2186264768,2148689938,2161282048,2166772178,2166654134,2148869238,1743,1,16,16718
1373844286,5809,96.2300033569336000,23.7224998474121100,35.3395996093750000,239.8858947753906200,47.3338394165039060,23.7054691314697270,28.2131690979003900,77,124,91,84,58,15252,2179012086,2186792164,2189390756,2148826157,2163214400,2169112027,2168471680,2149033206,1583,1,16,40385
1373844341,5804,94.2300033569336000,23.8153991699218750,35.3417015075683600,240.5843963623047000,44.2535018920898440,23.8008708953857420,28.1436691284179700,74,127,93,85,59,15243,2181832228,2189743140,2192110509,2148950811,2165104402,2171382372,2170219008,2149202413,1049,0,16,20110
1373844396,5808,92.6200027465820300,23.8717994689941400,35.3437995910644500,241.3238983154297000,42.2220306396484400,23.8638095855712900,28.0852108001709000,75,126,92,85,61,15239,2184131300,2192191149,2194392393,2149077924,2166585956,2173052589,2171443702,2149317339,142,1,16,36064
1373844451,5808,91.4700012207031200,23.9822006225585940,35.3398017883300800,241.7241058349609400,39.0350685119628900,23.9626007080078120,28.0279407501220700,72,130,93,86,58,15243,2185979318,2194174720,2196250258,2149173760,2167910665,2174528448,2172447158,2149415149,3117,1,16,51529
1373844623,5808,88.9199981689453100,24.0002002716064450,35.3404006958007800,243.8255004882812500,37.8864707946777340,23.9982109069824220,27.9208106994628900,72,126,92,84,59,15235,2191936493,2199904832,2200918345,2149411675,2172891922,2180104493,2176275392,2149753499,2288,1,16,52929
1373844678,5807,86.8600006103515600,24.0205001831054700,35.3386993408203100,244.1988983154297000,37.2367897033691400,24.0183601379394530,27.8963794708251950,71,129,90,86,59,15234,2196954349,2204955282,2205494875,2149694345,2176540717,2184184210,2179186029,2150036790,2036,1,16,49154
1373844733,5805,84.4899978637695300,24.0424995422363280,35.3371009826660160,244.7021942138672000,36.5816917419433600,24.0386791229248050,27.8663501739501950,70,129,93,85,59,15231,2202703926,2210268050,2209872777,2149976676,2180885193,2188907766,2182497673,2150352082,1705,1,16,21207
1373844788,5808,81.8499984741211000,24.1075000762939450,35.3331985473632800,245.0357055664062500,34.7456398010253900,24.0956306457519530,27.8289604187011720,69,129,90,84,57,15223,2211197988,2219062582,2218215478,2150518546,2186375277,2194948973,2186885906,2150797202,1766,2,16,36165
1373844843,5808,79.1800003051757800,24.2152996063232420,35.3283004760742200,245.6797943115234400,32.4244384765625000,24.1676692962646500,27.7721996307373050,68,126,93,85,57,15226,2218341403,2225928694,2224204498,2150977142,2191785673,2200631798,2190801554,2151198006,2084,2,16,59247
1373844927,5808,75.0400009155273400,24.3817005157470700,35.3268013000488300,247.1259002685547000,25.9831600189209000,24.3676891326904300,27.6301898956298830,67,130,93,88,56,15211,2233505261,2240433380,2237176027,2152212141,2203733348,2212995547,2199552228,2152156224,2443,1,16,50155
1373844982,5810,71.8600006103515600,24.6821002960205080,35.3386993408203100,247.7740020751953000,16.9354705810546880,24.6490192413330080,27.4914798736572270,65,126,94,85,57,15218,2212046061,2213765366,2208597019,2150950701,2193120704,2198100982,2186179419,2150863012,2382,1,16,61608
1373845037,5809,69.2099990844726600,24.8568992614746100,35.3615989685058600,248.1280975341797000,9.8298492431640620,24.8702793121337900,27.3893394470214840,62,128,93,87,55,15218,2256032585,2262041618,2256504118,2154188635,2223961142,2233160237,2213266688,2153640411,2564,1,16,3857
1373845092,5805,66.9199981689453100,24.9561996459960940,35.3653984069824200,248.2565002441406200,7.9200358390808105,24.9298000335693360,27.3604698181152340,61,128,92,85,55,15219,2230261129,2231611382,2225142875,2152634660,2209863579,2214792402,2197634532,2152090560,2814,1,16,55087
1373845147,5808,64.8499984741211000,25.0713005065917970,35.3655014038085940,247.8983001708984400,3.4813110828399660,25.0682106018066400,27.3217792510986330,61,127,92,84,56,15207,2199728374,2198086016,2192383222,2150663204,2186926546,2187516617,2176101394,2150018779,2504,1,16,14285
1373845204,5806,62.8199996948242200,25.2611999511718750,35.3648986816406250,247.6930999755859400,-0.7607191801071167,25.2005901336669920,27.2787799835205080,60,129,92,87,56,15219,2204456585,2201077092,2193771657,2150810038,2194739492,2194694144,2180383204,2150396278,2095,1,17,62834
1373845259,5807,61.2400016784668000,25.3430995941162100,35.3709983825683600,247.5079040527343800,-4.7032799720764160,25.3237209320068360,27.2385692596435550,59,126,91,85,55,15216,2285878125,2290172315,2282582820,2158423945,2254967552,2262174656,2232106349,2156022537,2215,1,16,56196
1373845336,5808,59.4199981689453100,25.4838008880615230,35.3736000061035160,246.9226074218750000,-8.8658447265625000,25.4538192749023440,27.2130699157714840,59,129,92,85,57,15216,2288769956,2292260580,2284210907,2159325312,2259809856,2266016932,2234201206,2156353773,2405,1,16,64435
1373845446,5811,57.5999984741210940,25.5286006927490230,35.3788986206054700,246.4541931152343800,-11.5404100418090820,25.5374698638916000,27.2006301879882800,59,129,92,87,56,15215,2296360475,2299611072,2291500370,2160963437,2266773430,2272577901,2238641883,2157071414,2127,1,16,13018
1373845574,5808,55.0800018310546900,25.9971008300781250,35.4121017456054700,243.2588958740234400,-25.7738704681396500,25.9834098815917970,27.1654605865478500,57,129,93,86,58,15208,2306472557,2307866249,2298806729,2163214189,2280933019,2285019986,2246425563,2158126756,1176,1,16,49971
1373845651,5805,53.2999992370605500,26.2070999145507800,35.4245986938476560,240.8188018798828000,-32.0063591003418000,26.1790790557861330,27.1961402893066400,57,128,95,86,52,15177,2319220525,2321004370,2311706834,2165367680,2293420580,2296760859,2254271625,2159219830,1157,1,16,54418
1373845772,5809,51.6199989318847660,26.3556003570556640,35.4325981140136700,239.3589019775390600,-37.5469703674316400,26.3532600402832030,27.1928997039794920,58,128,91,84,59,15212,2329365760,2331315547,2322056365,2167762450,2302835483,2305382272,2259970075,2160083629,909,1,16,5535
1373845888,5806,49.0000000000000000,26.3971004486084000,35.4375000000000000,238.0458984375000000,-39.2117004394531250,26.4056301116943360,27.2308597564697270,57,130,93,85,53,15201,2335200694,2334790171,2323397979,2170063771,2321458870,2320677257,2268936054,2161330358,84,1,16,4911
1373845943,5806,47.0299987792968750,26.5562000274658200,35.4313011169433600,236.9542999267578000,-43.6939010620117200,26.5467395782470700,27.2247505187988280,55,127,94,85,59,15182,2357141348,2358316233,2347079552,2176103003,2342634093,2340252754,2282206034,2163626880,3283,1,16,4265
1373846009,5805,45.0699996948242200,26.6240997314453120,35.4100990295410160,236.0137939453125000,-46.9263916015625000,26.6485900878906250,27.2273197174072270,56,126,90,86,54,15188,2367509010,2368950153,2358140964,2179321142,2359471881,2354957476,2291138852,2165133741,2195,1,17,29909
1373846086,5808,43.6300010681152340,26.7511997222900400,35.3241996765136700,235.0894927978515600,-50.5324096679687500,26.7623004913330080,27.2246704101562500,57,125,92,85,56,15192,2388006930,2390613869,2380442377,2184337289,2379840594,2375091190,2305412763,2167575332,1894,1,16,29977
1373846246,5807,41.2400016784668000,26.7439002990722660,35.2807998657226560,234.7183074951172000,-50.5914192199707000,26.7641601562500000,27.2406692504882800,56,126,91,85,57,15198,2398292269,2398694272,2387347940,2188556022,2401582537,2391974875,2314469056,2168896521,433,1,17,62281
1373846323,5807,38.9300003051757800,26.8143005371093750,35.2155990600585940,234.1990051269531200,-52.5463714599609400,26.8258495330810550,27.2403392791748050,53,124,93,83,51,15202,2266378249,2257688009,2245305554,2164450166,2279606418,2265716973,2222980672,2156672173,829,0,16,43305
1373846389,5812,37.3699989318847660,27.0713005065917970,35.1315002441406250,232.5520935058593800,-58.5849189758300800,27.0165691375732420,27.2411403656005860,53,122,91,85,61,15203,2409754752,2411242816,2402514715,2199467501,2412103725,2398199908,2317871552,2171178715,65,1,16,62169
1373846494,5809,35.2099990844726560,27.1711997985839840,35.0983009338378900,230.0480041503906200,-64.1605377197265600,27.1928997039794920,27.2872600555419920,53,121,91,84,57,15212,2300480009,2293312676,2280913755,2174774034,2323420022,2307970221,2251914112,2161361563,561,1,16,58117
1373846582,5808,33.5499992370605500,27.1758995056152340,35.0964012145996100,228.3280029296875000,-63.9699401855468750,27.1868705749511720,27.3689098358154300,52,118,91,84,55,15222,2252518774,2243503881,2232539492,2165414912,2262937398,2247293650,2210016740,2156040100,889,0,17,12165
1373846864,5807,31.1499996185302730,27.1868000030517580,35.0937995910644500,226.9396972656250000,-64.5241317749023400,27.2044105529785160,27.4265899658203120,51,115,88,81,56,15238,2428434660,2426498916,2418883986,2219121700,2487708461,2462229376,2355896594,2179210331,807,1,16,46922
1373846930,5807,28.9099998474121100,27.1888008117675780,35.0928001403808600,226.9757995605468800,-64.5987777709961000,27.2067699432373050,27.4239196777343750,51,117,90,83,54,15233,2446623643,2446035145,2440330139,2233066322,2513611593,2481957238,2366648923,2181650816,379,1,16,39515